Change the Weather History Date:

Wednesday, October 31, 2012

  Actual Average (KLJF) Record (KLJF)
Temperature  
Mean Temperature 45 °F -  
Max Temperature 55 °F 50 °F 81 °F (1950)
Min Temperature 35 °F 34 °F 12 °F (1951)
Degree Days  
Heating Degree Days 20    
Moisture  
Dew Point 30 °F    
Average Humidity 58    
Maximum Humidity 81    
Minimum Humidity 30    
Precipitation  
Precipitation 0.00 in - - ()
Sea Level Pressure  
Sea Level Pressure 30.02 in    
Wind  
Wind Speed 2 mph (WSW)    
Max Wind Speed 7 mph    
Max Gust Speed -    
Visibility 10 miles    
Events Rain    
Averages and records for this station are not official NWS values.
T = Trace of Precipitation, MM = Missing Value Source: NWS Daily Summary

Daily Weather History Graph

Daily Weather History Graph

Search for Another Location

Airport or City:

Trip Planner

Search our weather history database for the weather conditions in past years. The results will help you decide how hot, cold, wet, or windy it might be!

Date:

Astronomy

Oct. 31, 2012 Rise Set
Actual Time 7:58 AM CDT 6:09 PM CDT
Civil Twilight 7:27 AM CDT 6:39 PM CDT
Nautical Twilight 6:53 AM CDT 7:14 PM CDT
Astronomical Twilight 6:18 AM CDT 7:48 PM CDT
Moon 7:15 PM CDT 9:45 AM CDT
Length of Visible Light 11h 11m
Length of Day
10h 10m
Full, 97% of the Moon is Illuminated
Oct 31
Full
Nov 6
Last Quarter
Nov 13
New
Nov 20
First Quarter
Nov 28
Full

Hourly Weather History & Observations

Time (CDT) Temp. Windchill Dew Point Humidity Pressure Visibility Wind Dir Wind Speed Gust Speed Precip Events Conditions
12:15 AM 37.4 °F 33.8 °F 30.2 °F 75% 30.10 in 10.0 mi ENE 4.6 mph - N/A   Overcast
12:35 AM 37.4 °F 33.8 °F 30.2 °F 75% 30.10 in 10.0 mi ENE 4.6 mph - N/A   Overcast
12:55 AM 37.4 °F 34.9 °F 30.2 °F 75% 30.10 in 10.0 mi ENE 3.5 mph - N/A   Overcast
1:15 AM 39.2 °F 37.0 °F 32.0 °F 75% 30.09 in 10.0 mi East 3.5 mph - N/A   Overcast
1:35 AM 39.2 °F - 30.2 °F 70% 30.08 in 10.0 mi Calm Calm - N/A   Overcast
1:50 AM 39.2 °F 37.0 °F 30.2 °F 70% 30.08 in 10.0 mi ESE 3.5 mph - N/A   Overcast
2:15 AM 37.4 °F 34.9 °F 30.2 °F 75% 30.08 in 10.0 mi East 3.5 mph - N/A   Overcast
2:55 AM 39.2 °F - 26.6 °F 61% 30.08 in 10.0 mi Calm Calm - N/A   Overcast
3:15 AM 39.2 °F - 26.6 °F 61% 30.08 in 10.0 mi Calm Calm - N/A   Overcast
3:35 AM 37.4 °F - 24.8 °F 60% 30.08 in 10.0 mi Calm Calm - N/A   Overcast
3:55 AM 37.4 °F - 26.6 °F 65% 30.07 in 10.0 mi Calm Calm - N/A   Overcast
4:15 AM 37.4 °F - 28.4 °F 70% 30.07 in 10.0 mi Calm Calm - N/A   Overcast
4:35 AM 37.4 °F - 26.6 °F 65% 30.07 in 10.0 mi Calm Calm - N/A   Overcast
4:55 AM 37.4 °F - 28.4 °F 70% 30.07 in 10.0 mi Calm Calm - N/A   Overcast
5:16 AM 37.4 °F - 28.4 °F 70% 30.06 in 10.0 mi Calm Calm - N/A   Overcast
5:35 AM 37.4 °F - 26.6 °F 65% 30.06 in 10.0 mi Calm Calm - N/A   Overcast
5:55 AM 37.4 °F - 26.6 °F 65% 30.06 in 10.0 mi Calm Calm - N/A   Overcast
6:15 AM 37.4 °F - 28.4 °F 70% 30.06 in 10.0 mi Calm Calm - N/A   Overcast
6:35 AM 37.4 °F - 28.4 °F 70% 30.06 in 7.0 mi Calm Calm - N/A   Overcast
6:55 AM 37.4 °F - 28.4 °F 70% 30.07 in 10.0 mi Calm Calm - N/A   Mostly Cloudy
7:15 AM 35.6 °F - 30.2 °F 81% 30.07 in 10.0 mi Calm Calm - N/A   Overcast
7:35 AM 35.6 °F - 28.4 °F 75% 30.06 in 10.0 mi Calm Calm - N/A   Overcast
8:15 AM 35.6 °F - 28.4 °F 75% 30.06 in 10.0 mi Calm Calm - N/A   Overcast
8:35 AM 37.4 °F - 28.4 °F 70% 30.06 in 10.0 mi Calm Calm - N/A   Mostly Cloudy
8:55 AM 37.4 °F - 28.4 °F 70% 30.05 in 7.0 mi Calm Calm - N/A   Mostly Cloudy
9:15 AM 39.2 °F - 26.6 °F 61% 30.05 in 3.0 mi Calm Calm - N/A   Haze
9:35 AM 39.2 °F - 24.8 °F 56% 30.05 in 4.0 mi Calm Calm - N/A   Haze
9:55 AM 39.2 °F - 24.8 °F 56% 30.05 in 10.0 mi Calm Calm - N/A   Scattered Clouds
10:15 AM 41.0 °F - 24.8 °F 53% 30.05 in 10.0 mi Calm Calm - N/A   Scattered Clouds
10:35 AM 42.8 °F 40.1 °F 24.8 °F 49% 30.05 in 10.0 mi SW 4.6 mph - N/A   Clear
10:55 AM 44.6 °F - 24.8 °F 46% 30.04 in 10.0 mi Calm Calm - N/A   Clear
11:20 AM 46.4 °F 44.3 °F 23.0 °F 40% 30.05 in 10.0 mi WNW 4.6 mph - N/A   Clear
11:35 AM 46.4 °F - 21.2 °F 37% 30.05 in 10.0 mi Calm Calm - N/A   Clear
11:55 AM 48.2 °F - 24.8 °F 40% 30.05 in 10.0 mi WSW 3.5 mph - N/A   Clear
12:15 PM 48.2 °F - 26.6 °F 43% 30.04 in 10.0 mi Calm Calm - N/A   Clear
12:35 PM 48.2 °F - 26.6 °F 43% 30.03 in 10.0 mi Calm Calm - N/A   Clear
12:55 PM 50.0 °F - 26.6 °F 40% 30.01 in 10.0 mi Calm Calm - N/A   Clear
1:20 PM 51.8 °F - 24.8 °F 35% 30.01 in 10.0 mi West 4.6 mph - N/A   Clear
1:35 PM 51.8 °F - 21.2 °F 30% 30.00 in 10.0 mi WSW 5.8 mph - N/A   Clear
2:15 PM 53.6 °F - 24.8 °F 33% 29.99 in 10.0 mi Calm Calm - N/A   Clear
2:35 PM 53.6 °F - 24.8 °F 33% 29.98 in 10.0 mi WSW 4.6 mph - N/A   Clear
2:56 PM 53.6 °F - 24.8 °F 33% 29.98 in 10.0 mi SW 4.6 mph - N/A   Clear
3:15 PM 53.6 °F - 24.8 °F 33% 29.97 in 10.0 mi WNW 6.9 mph - N/A   Clear
3:35 PM 55.4 °F - 24.8 °F 31% 29.97 in 10.0 mi SW 5.8 mph - N/A   Clear
3:56 PM 55.4 °F - 24.8 °F 31% 29.97 in 10.0 mi WSW 4.6 mph - N/A   Clear
4:15 PM 55.4 °F - 26.6 °F 33% 29.97 in 10.0 mi WSW 4.6 mph - N/A   Clear
4:35 PM 55.4 °F - 26.6 °F 33% 29.97 in 10.0 mi West 4.6 mph - N/A   Clear
4:56 PM 55.4 °F - 26.6 °F 33% 29.96 in 10.0 mi Calm Calm - N/A   Clear
5:15 PM 55.4 °F - 28.4 °F 36% 29.96 in 10.0 mi Calm Calm - N/A   Clear
5:35 PM 55.4 °F - 28.4 °F 36% 29.97 in 10.0 mi Calm Calm - N/A   Clear
5:55 PM 55.4 °F - 33.8 °F 44% 29.95 in 10.0 mi Calm Calm - N/A Rain Light Rain
6:15 PM 53.6 °F - 33.8 °F 47% 29.95 in 10.0 mi Calm Calm - N/A   Mostly Cloudy
6:35 PM 51.8 °F - 37.4 °F 58% 29.95 in 10.0 mi Calm Calm - N/A   Scattered Clouds
6:55 PM 50.0 °F - 39.2 °F 66% 29.95 in 7.0 mi Calm Calm - N/A   Scattered Clouds
7:15 PM 51.8 °F - 37.4 °F 58% 29.95 in 10.0 mi Calm Calm - N/A   Scattered Clouds
7:35 PM 48.2 °F - 39.2 °F 71% 29.96 in 10.0 mi Calm Calm - N/A   Scattered Clouds
7:55 PM 48.2 °F - 39.2 °F 71% 29.96 in 10.0 mi Calm Calm - N/A   Mostly Cloudy
8:15 PM 48.2 °F - 37.4 °F 66% 29.95 in 10.0 mi Calm Calm - N/A   Scattered Clouds
8:35 PM 46.4 °F - 37.4 °F 71% 29.96 in 10.0 mi Calm Calm - N/A   Clear
8:55 PM 46.4 °F - 37.4 °F 71% 29.95 in 3.0 mi Calm Calm - N/A   Haze
9:15 PM 44.6 °F - 37.4 °F 76% 29.95 in 10.0 mi Calm Calm - N/A   Mostly Cloudy
9:35 PM 44.6 °F - 35.6 °F 71% 29.95 in 7.0 mi Calm Calm - N/A   Overcast
9:55 PM 44.6 °F - 35.6 °F 71% 29.96 in 10.0 mi Calm Calm - N/A   Overcast
10:15 PM 42.8 °F - 35.6 °F 76% 29.96 in 10.0 mi Calm Calm - N/A   Overcast
10:35 PM 44.6 °F - 35.6 °F 71% 29.95 in 10.0 mi Calm Calm - N/A   Overcast
10:55 PM 44.6 °F - 37.4 °F 76% 29.95 in 10.0 mi Calm Calm - N/A   Overcast
11:15 PM 44.6 °F - 37.4 °F 76% 29.95 in 10.0 mi Calm Calm - N/A   Overcast
11:35 PM 44.6 °F - 35.6 °F 71% 29.95 in 10.0 mi Calm Calm - N/A   Overcast
11:55 PM 42.8 °F - 37.4 °F 81% 29.95 in 10.0 mi Calm Calm - N/A   Overcast